SCP
0 0 0 0 0 0 0 0 0 0 0 0 0 0 0 0 0 0 0 0 0 1 0 0 0 0 0 1 1 1 0 0 0 0 0 0 0 0 0 0 0 0 0 0 0 0 0 0 0
0 0 0 0 0 0 0 0 0 0 0 0 0 0 0 0 0 0 0 0 0 0 1 1 0 0 0 1 1 1 0 0 0 0 0 0 0 0 0 0 0 0 0 0 0 0 0 0 0
0 0 0 0 0 0 0 0 0 0 0 0 0 0 0 0 0 0 0 0 0 0 0 1 0 0 0 1 1 1 0 0 0 0 0 0 0 0 0 0 0 0 0 0 0 0 0 0 0
0 0 0 0 0 0 0 0 0 0 0 0 0 0 0 0 0 0 0 0 0 0 0 0 0 0 0 1 1 1 1 0 0 0 0 0 0 0 0 0 0 0 0 0 0 0 0 0 0
0 0 0 0 0 0 0 0 0 0 0 0 0 0 0 0 0 0 0 0 0 0 0 0 0 0 0 0 0 0 0 1 1 0 0 0 0 0 0 0 0 0 0 0 0 0 0 0 0
0 0 0 0 0 0 0 0 0 0 0 0 0 0 0 0 0 0 0 0 0 0 0 0 0 0 0 0 0 0 0 0 0 1 0 0 0 0 0 0 0 0 0 0 0 0 0 0 0
0 0 0 0 0 0 0 0 0 0 0 0 0 0 0 0 0 0 0 0 0 0 0 0 0 0 0 0 0 0 0 0 0 0 0 0 0 0 0 0 0 0 0 0 0 0 0 0 0
0 0 0 0 0 0 0 0 0 0 0 0 0 0 0 0 0 0 0 0 0 0 0 0 0 0 0 0 0 0 0 0 0 0 0 0 0 0 0 0 0 0 0 0 0 0 0 0 0
0 0 0 0 0 0 0 0 0 0 0 0 0 0 0 0 0 0 0 0 0 0 0 0 0 0 0 0 0 0 0 0 0 0 0 0 0 0 0 0 0 0 0 0 0 0 0 0 0
0 0 0 0 0 0 0 0 0 0 0 0 0 0 0 0 0 0 0 0 0 0 0 0 0 0 0 0 0 0 0 0 0 0 0 0 0 0 0 0 0 0 0 0 0 0 0 0 0
0 0 0 0 0 0 0 0 0 0 0 0 0 0 0 0 0 -0 -0 -0 -0 0 0 0 0 -0 0 0 0 -0 0 -0 0 0 0 0 0 0 0 0 0 0 0 0 0 0 0 0 0
0 0 0 0 0 0 0 0 0 0 0 -0 0 0 0 0 0 0 0 -0 -0 0 0 0 0 -0 -0 -0 0 0 -0 0 0 0 0 1 0 0 0 0 0 0 0 0 0 0 0 0 0
0 0 0 0 0 0 0 0 0 0 0 0 0 0 0 0 0 0 -0 -0 -0 0 0 0 0 0 -0 -0 0 0 -0 -0 0 0 0 0 0 0 0 0 0 0 0 0 0 0 0 0 0
0 0 0 0 0 0 0 0 0 0 0 0 0 0 0 0 0 0 0 0 0 0 0 0 0 0 0 -0 0 0 0 -0 0 0 0 0 0 0 0 0 0 0 0 0 0 0 0 0 0
0 0 0 0 0 0 0 0 0 0 0 0 0 0 0 0 0 0 0 0 0 0 0 0 0 0 -0 -0 0 0 0 0 0 0 0 0 0 0 0 0 0 0 0 0 0 0 0 0 0
0 0 0 0 0 0 0 0 0 0 0 0 0 0 0 0 0 0 0 0 0 0 0 0 0 0 0 -0 0 0 0 0 0 0 0 0 0 0 0 0 0 0 0 0 0 0 0 0 0
0 0 0 0 0 0 0 0 0 0 0 0 0 0 0 0 0 0 0 0 0 0 0 0 0 0 0 0 0 0 0 0 0 0 0 0 0 0 0 0 0 0 0 0 0 0 0 0 0
0 0 0 0 0 0 0 0 0 0 0 0 0 0 0 0 0 0 0 0 0 0 0 0 0 0 0 0 0 0 0 0 0 0 0 0 0 0 0 0 0 0 0 0 0 0 0 0 0
0 0 0 0 0 0 0 0 0 0 0 0 0 0 0 0 0 0 0 0 0 0 0 0 0 0 0 0 0 0 0 0 0 0 0 0 0 0 0 0 0 0 0 0 0 0 0 0 0
0 0 0 0 0 0 0 0 0 0 0 0 0 0 0 0 0 0 0 0 0 0 0 0 0 0 0 0 0 0 0 0 0 0 0 0 0 0 0 0 0 0 0 0 0 0 0 0 0
0 0 0 0 0 0 0 0 -0 0 0 0 0 0 0 0 0 0 0 0 0 0 0 0 0 0 0 0 0 0 0 0 0 0 0 0 0 0 0 0 0 0 0 0 0 0 0 0 0
0 0 -0 0 0 0 0 0 -0 0 0 -0 -0 -0 0 0 0 0 0 0 0 0 0 0 0 0 0 0 0 0 0 0 0 0 0 0 0 0 0 0 0 0 0 0 0 0 0 0 0
0 0 0 0 0 0 0 0 0 -0 -0 -0 -0 -0 -0 0 0 0 0 0 0 0 0 0 0 0 0 0 0 0 0 0 -0 0 0 0 0 0 0 0 0 0 0 0 0 0 0 0 0
0 0 0 0 0 0 0 0 -0 0 -0 -0 -0 -0 -0 -0 0 0 0 0 0 0 0 0 0 0 0 0 0 0 0 0 0 0 0 0 0 0 0 0 0 0 0 0 0 0 0 0 0
0 0 0 0 0 0 0 0 0 0 0 -0 -0 -0 -0 -0 0 0 0 0 0 0 0 0 0 0 0 0 0 0 0 0 0 0 0 0 0 0 0 0 0 0 0 0 0 0 0 0 0
0 0 0 0 0 0 0 0 0 -0 -0 0 -0 -0 -0 -0 0 0 0 0 0 0 0 0 0 0 0 0 0 0 0 0 0 0 0 0 0 0 0 0 0 0 0 0 0 0 0 0 0
0 0 0 0 0 0 0 0 0 0 -0 -0 -0 -0 -0 -0 -0 0 0 0 0 0 0 0 0 0 0 0 0 0 0 0 0 0 0 0 0 0 0 0 0 0 0 0 0 0 0 0 0
0 0 0 0 0 0 0 0 0 0 -0 -0 -0 -0 -0 -0 0 0 0 0 0 0 0 0 0 0 0 0 0 0 0 0 0 0 0 0 0 0 0 0 0 0 0 0 0 0 0 0 0
0 0 0 0 0 0 0 0 0 0 0 0 -0 -0 -0 -0 0 0 0 0 0 0 0 0 0 0 0 0 0 0 0 -0 0 0 0 0 0 0 0 0 0 0 0 0 0 0 0 0 0
0 0 0 0 0 0 0 0 0 -0 -0 0 0 -0 -0 -0 0 0 0 0 0 0 0 0 0 0 0 0 0 0 0 -0 0 -0 0 0 0 0 0 0 0 0 0 0 0 0 0 0 0
Wind_Speed_500mb
5 10 18 20 4 5 7 15 8 9 6 17 30 23 11 3 2 7 21 9 6 4 6 13 12 19 30 37 43 47 49 54 56 56 54 51 47 43 42 40 39 39 37 32 34 39 38 33 29
2 12 17 6 7 5 11 11 17 29 15 48 53 24 7 6 11 13 8 8 3 4 4 16 14 13 24 35 40 43 46 54 57 58 55 50 45 43 41 41 40 38 33 31 36 38 39 38 40
1 14 8 8 9 19 10 9 29 20 32 50 14 2 8 5 18 12 12 0 3 4 8 9 11 11 12 32 40 41 42 48 55 56 54 49 45 42 43 42 39 34 31 36 40 42 45 46 44
2 5 5 5 21 11 7 12 9 17 47 19 9 11 14 7 8 15 18 9 7 9 19 18 8 12 10 26 39 45 45 45 48 52 51 48 44 43 43 43 37 33 30 39 43 48 51 46 38
2 3 3 8 12 10 14 26 21 8 13 19 25 12 14 28 25 18 10 11 17 15 16 18 25 27 30 30 39 47 51 50 46 48 50 48 45 44 45 43 38 34 30 39 44 50 49 41 39
2 4 1 11 17 15 14 20 27 10 11 15 7 4 15 29 16 16 13 13 9 10 12 12 14 23 30 35 42 50 53 54 52 50 50 48 47 48 49 47 41 41 33 38 44 47 44 39 38
12 8 11 10 11 9 10 38 12 16 9 9 5 5 25 18 29 18 13 9 9 0 4 10 11 9 19 34 39 53 60 59 57 54 52 50 49 50 52 51 48 47 37 40 46 47 44 42 37
5 7 7 10 8 14 3 23 22 15 10 8 5 9 8 11 22 13 8 15 17 14 13 11 12 15 20 25 38 48 62 63 62 60 55 51 50 52 54 53 51 52 45 45 46 43 43 41 41
6 2 6 9 7 6 13 13 21 33 14 27 9 2 6 18 18 16 13 12 17 20 25 22 23 19 26 26 31 45 56 67 67 65 61 54 54 54 51 57 55 56 51 51 49 47 43 44 43
7 7 13 11 4 7 8 8 23 15 34 17 29 32 27 29 35 35 33 34 27 29 31 34 33 33 27 37 37 35 45 65 69 70 68 61 61 58 56 57 57 58 55 53 55 46 47 47 47
8 9 7 21 28 21 13 16 22 8 7 8 39 53 54 54 49 47 42 33 33 35 36 41 43 40 40 40 44 45 43 52 68 77 73 68 69 62 59 54 57 63 61 58 53 53 59 50 49
12 16 17 17 24 30 15 24 16 25 27 51 62 60 56 54 53 55 58 49 45 46 48 45 43 39 37 40 48 47 39 50 40 72 73 74 75 68 67 62 55 65 68 63 63 53 51 48 45
8 7 27 42 46 48 48 25 31 37 38 45 55 53 50 50 50 45 41 43 41 42 55 47 37 36 34 30 41 45 41 36 40 55 73 78 79 75 75 71 62 58 66 65 55 51 47 47 43
17 32 40 44 42 41 19 27 15 38 45 37 31 33 30 30 36 33 31 36 35 35 39 41 39 32 35 33 40 43 43 29 35 46 39 85 81 81 82 80 69 66 69 66 59 53 47 46 45
31 17 16 11 7 11 37 14 17 50 58 39 40 35 29 27 23 22 23 24 30 32 35 37 34 32 38 36 45 43 37 32 24 36 63 42 81 90 87 88 78 70 64 69 64 58 53 47 46
9 4 7 9 25 7 22 13 19 52 29 38 43 43 39 33 32 27 23 23 25 29 27 36 35 37 37 35 39 39 37 33 20 27 47 59 62 90 91 91 83 73 68 70 67 62 57 52 51
4 14 31 20 25 17 9 22 13 37 35 38 49 52 49 46 37 32 31 21 17 26 30 31 30 29 24 25 33 38 36 36 27 21 32 45 60 81 64 88 92 80 75 68 68 64 59 52 50
32 27 17 33 19 22 16 19 24 37 34 34 41 49 54 55 52 47 41 30 17 16 29 24 26 26 30 37 37 38 37 38 33 26 25 38 52 60 92 96 77 98 82 70 65 67 60 53 50
20 26 29 28 14 30 8 11 19 24 40 43 48 53 59 63 56 46 39 33 23 12 17 17 19 21 34 40 35 37 37 38 36 31 31 37 50 49 62 62 90 84 70 72 56 62 61 57 51
25 27 14 19 25 14 16 20 18 19 31 36 42 48 51 62 59 59 58 37 19 19 13 14 17 27 27 32 32 37 36 33 31 26 35 48 45 62 61 70 64 50 62 64 51 53 52 49 50
27 8 19 21 15 6 16 5 11 19 22 42 42 43 50 55 63 67 62 52 35 19 17 16 20 29 27 29 33 38 38 29 29 28 33 33 59 65 69 54 30 33 53 51 42 43 50 51 45
9 7 33 31 3 7 5 6 9 25 17 33 50 57 59 68 68 67 56 50 49 18 15 21 20 23 26 30 37 45 42 32 30 37 46 42 33 36 44 40 30 25 30 43 53 51 51 53 61
16 38 24 10 6 5 9 5 3 18 24 40 45 60 64 65 60 61 56 47 41 28 15 15 17 24 27 33 39 39 37 31 34 27 54 52 47 56 70 23 26 32 63 65 66 58 56 53 47
25 10 4 4 5 7 14 5 5 11 18 31 44 58 64 70 71 59 49 44 42 32 27 21 18 19 24 23 28 32 33 35 35 46 49 50 53 53 45 49 48 57 67 52 43 50 48 54 52
18 12 7 9 9 7 7 7 7 9 13 17 35 55 61 65 64 61 57 52 48 41 32 21 18 13 11 11 17 27 30 38 44 52 54 61 60 61 60 61 58 64 55 51 46 40 34 30 30
9 5 6 6 6 9 11 8 9 8 18 34 41 44 53 60 58 55 49 45 42 36 28 21 15 9 6 7 16 24 35 41 51 58 52 51 51 55 58 60 59 56 57 55 55 41 34 35 31
11 5 3 4 6 5 5 1 7 23 37 42 46 50 54 59 61 56 45 41 37 32 27 19 13 8 0 10 23 34 39 46 48 55 56 53 54 52 51 56 55 61 59 51 43 39 41 40 37
7 7 1 1 8 6 6 8 7 26 37 32 36 48 58 58 52 46 41 37 31 27 22 17 13 6 11 20 30 43 51 54 61 62 60 58 59 59 56 60 61 57 54 53 51 52 48 40 39
6 6 5 5 4 3 7 7 7 10 16 23 32 43 49 53 46 39 35 29 26 24 23 23 26 21 21 33 45 53 65 66 75 76 77 76 78 75 77 77 73 69 67 58 53 50 45 41 43
7 4 2 2 8 3 3 7 1 5 13 24 34 40 41 39 33 35 30 28 32 33 34 34 37 43 47 53 64 71 85 90 93 94 93 90 89 84 82 77 74 66 60 56 53 53 50 48 45
Wind_Direction_500mb
327 198 171 156 87 67 239 243 281 280 278 243 251 275 227 59 305 192 91 152 209 140 196 171 179 189 196 197 194 191 188 186 184 183 183 185 188 195 198 200 199 194 190 187 184 185 183 174 169
22 164 170 152 131 197 242 222 221 240 262 314 300 255 190 104 94 112 143 67 260 160 94 167 158 179 202 204 198 196 188 187 187 186 188 192 197 201 203 197 194 193 194 189 178 178 175 169 158
178 177 165 157 193 218 220 206 224 262 289 299 290 358 77 63 92 87 65 43 170 179 135 142 159 179 188 207 207 201 195 192 192 193 197 200 201 201 200 195 193 193 194 181 173 171 165 163 162
231 157 219 203 240 280 236 290 313 298 304 265 251 88 79 73 90 107 88 127 145 118 138 148 183 194 206 221 218 212 211 200 197 200 202 203 203 203 198 193 191 189 190 180 174 167 166 165 172
297 164 241 251 258 255 275 293 315 299 293 315 320 132 103 91 91 70 73 105 107 108 128 169 196 205 210 224 229 229 217 213 211 206 205 204 204 202 196 193 186 183 177 182 177 171 171 172 170
244 116 175 246 261 282 301 301 315 285 249 288 347 77 133 106 92 46 32 33 109 120 121 148 204 225 222 230 223 233 233 220 216 214 212 206 204 202 196 192 184 190 190 187 178 173 176 176 174
161 117 217 243 249 282 284 313 275 260 244 247 158 137 161 134 8 4 339 326 335 318 275 186 196 236 254 242 235 228 229 231 222 216 215 210 207 202 198 194 189 195 194 187 184 182 185 181 180
211 120 239 228 210 277 38 337 344 7 285 303 160 199 178 299 353 3 338 320 313 314 284 293 264 252 249 259 247 238 232 226 227 221 218 214 210 207 203 199 194 194 197 190 189 194 196 191 189
193 47 246 254 211 279 356 16 322 323 318 327 348 161 333 342 328 339 336 312 292 297 299 296 287 274 278 270 270 254 237 229 224 225 218 215 212 209 205 203 201 198 201 199 194 197 199 200 197
155 151 236 223 359 298 305 330 311 326 318 305 304 280 290 308 316 320 325 324 307 288 291 300 293 286 276 273 276 289 255 234 225 223 220 216 212 211 209 207 209 205 203 204 207 203 207 205 201
324 226 247 298 317 338 317 306 318 293 296 298 316 311 303 299 297 304 312 316 310 292 284 288 292 292 283 271 273 272 273 258 225 226 219 216 213 211 212 209 212 207 204 207 210 215 212 204 202
332 282 303 295 319 321 306 297 286 260 274 297 293 293 293 291 292 295 294 303 301 297 285 285 285 292 294 277 269 276 291 256 273 235 217 217 215 211 211 208 209 210 204 205 207 203 203 203 204
245 287 316 309 312 307 304 289 277 293 300 311 309 301 296 296 297 293 290 298 303 295 286 285 285 290 293 281 272 268 276 282 266 241 220 219 218 215 212 209 212 217 207 202 209 206 206 207 206
304 306 302 300 300 303 290 292 321 287 305 330 7 5 343 335 323 316 311 294 299 297 288 284 284 280 279 290 280 275 267 272 275 251 244 214 218 218 215 211 212 220 212 201 207 206 212 210 212
287 294 298 294 352 297 15 333 311 339 333 26 15 16 12 11 353 350 340 321 303 285 275 276 282 271 274 290 287 279 260 260 271 251 243 213 228 222 219 214 210 219 217 201 206 207 213 216 216
302 291 309 343 316 328 359 285 12 9 28 16 5 357 346 343 342 334 323 317 292 283 265 267 276 268 269 281 285 277 261 241 236 251 242 248 235 223 228 217 213 214 215 204 205 207 213 217 214
275 305 299 309 334 316 304 295 8 13 23 16 5 358 350 337 328 324 323 307 298 271 257 261 271 268 263 275 282 276 260 246 229 241 238 252 238 231 243 219 210 215 212 208 205 205 214 214 212
309 313 298 308 316 15 313 350 56 28 16 19 7 357 355 351 345 336 328 309 282 264 248 247 249 259 281 279 277 272 267 243 231 228 227 222 226 243 230 223 223 212 205 206 207 207 216 219 217
297 301 301 301 345 329 284 56 49 25 20 13 4 357 353 351 352 348 349 332 280 245 215 234 274 270 278 275 261 275 278 251 239 216 220 219 225 220 231 230 230 223 210 206 207 210 218 218 219
319 305 293 294 320 317 83 48 19 23 22 12 2 355 349 349 2 1 359 355 312 245 216 227 254 260 259 248 252 279 279 253 247 226 208 212 217 221 218 222 217 225 213 210 202 214 220 221 220
330 265 312 302 317 46 131 133 49 2 3 4 2 354 358 356 350 1 3 13 355 245 254 276 264 263 257 254 254 269 266 234 227 220 212 212 214 221 213 210 224 207 222 207 201 208 219 227 223
311 297 311 302 315 157 155 267 7 349 351 359 355 357 353 351 358 2 6 19 27 357 286 305 284 276 266 269 270 267 257 230 228 205 195 183 195 208 205 178 162 209 201 219 229 209 218 225 229
252 316 294 282 272 9 146 109 343 357 345 348 350 348 347 348 351 355 6 15 21 35 26 315 280 289 293 262 263 262 241 221 241 210 185 185 186 193 185 206 196 211 205 215 210 207 215 223 225
326 343 359 274 79 24 299 122 322 2 334 336 339 342 345 348 355 358 9 21 23 21 12 351 311 312 292 284 254 231 216 224 230 203 182 178 178 180 197 206 181 196 202 202 199 209 215 217 220
359 23 354 354 6 228 283 2 262 329 344 344 335 336 344 350 356 1 14 18 20 21 14 356 340 339 309 270 239 199 204 218 197 177 172 171 184 182 181 180 181 193 194 198 202 207 205 210 204
352 86 135 264 319 288 354 343 275 186 13 358 351 346 348 354 2 4 12 19 22 22 16 358 339 323 276 199 187 202 189 185 177 169 163 163 178 185 178 180 182 185 196 203 195 193 195 190 198
332 6 312 220 197 339 252 169 127 333 346 354 352 353 349 351 1 6 14 22 24 23 23 22 10 347 86 171 156 164 171 168 158 148 156 156 150 143 153 161 166 149 147 149 155 159 151 144 129
80 328 189 0 334 308 308 303 252 336 336 345 344 346 346 352 8 16 22 27 35 38 35 34 43 65 123 142 140 142 144 151 142 141 145 139 134 132 132 127 126 123 122 122 123 116 110 110 108
11 12 355 283 192 308 317 292 204 290 318 331 330 341 344 351 8 18 31 40 52 61 68 79 90 103 120 125 121 128 132 134 128 124 123 123 123 122 122 119 116 113 112 111 112 106 101 101 100
123 174 158 349 335 300 242 289 296 247 342 344 337 342 349 355 20 33 48 59 68 79 84 93 102 106 110 118 113 116 122 121 116 114 114 115 113 114 112 110 108 107 103 100 100 104 106 104 102
Wind_Speed_850mb
5 10 18 20 4 5 7 15 8 9 6 17 30 23 11 3 2 7 21 9 6 4 6 13 12 19 30 37 43 47 49 54 56 56 54 51 47 43 42 40 39 39 37 32 34 39 38 33 29
2 12 17 6 7 5 11 11 17 29 15 48 53 24 7 6 11 13 8 8 3 4 4 16 14 13 24 35 40 43 46 54 57 58 55 50 45 43 41 41 40 38 33 31 36 38 39 38 40
1 14 8 8 9 19 10 9 29 20 32 50 14 2 8 5 18 12 12 0 3 4 8 9 11 11 12 32 40 41 42 48 55 56 54 49 45 42 43 42 39 34 31 36 40 42 45 46 44
2 5 5 5 21 11 7 12 9 17 47 19 9 11 14 7 8 15 18 9 7 9 19 18 8 12 10 26 39 45 45 45 48 52 51 48 44 43 43 43 37 33 30 39 43 48 51 46 38
2 3 3 8 12 10 14 26 21 8 13 19 25 12 14 28 25 18 10 11 17 15 16 18 25 27 30 30 39 47 51 50 46 48 50 48 45 44 45 43 38 34 30 39 44 50 49 41 39
2 4 1 11 17 15 14 20 27 10 11 15 7 4 15 29 16 16 13 13 9 10 12 12 14 23 30 35 42 50 53 54 52 50 50 48 47 48 49 47 41 41 33 38 44 47 44 39 38
12 8 11 10 11 9 10 38 12 16 9 9 5 5 25 18 29 18 13 9 9 0 4 10 11 9 19 34 39 53 60 59 57 54 52 50 49 50 52 51 48 47 37 40 46 47 44 42 37
5 7 7 10 8 14 3 23 22 15 10 8 5 9 8 11 22 13 8 15 17 14 13 11 12 15 20 25 38 48 62 63 62 60 55 51 50 52 54 53 51 52 45 45 46 43 43 41 41
6 2 6 9 7 6 13 13 21 33 14 27 9 2 6 18 18 16 13 12 17 20 25 22 23 19 26 26 31 45 56 67 67 65 61 54 54 54 51 57 55 56 51 51 49 47 43 44 43
7 7 13 11 4 7 8 8 23 15 34 17 29 32 27 29 35 35 33 34 27 29 31 34 33 33 27 37 37 35 45 65 69 70 68 61 61 58 56 57 57 58 55 53 55 46 47 47 47
8 9 7 21 28 21 13 16 22 8 7 8 39 53 54 54 49 47 42 33 33 35 36 41 43 40 40 40 44 45 43 52 68 77 73 68 69 62 59 54 57 63 61 58 53 53 59 50 49
12 16 17 17 24 30 15 24 16 25 27 51 62 60 56 54 53 55 58 49 45 46 48 45 43 39 37 40 48 47 39 50 40 72 73 74 75 68 67 62 55 65 68 63 63 53 51 48 45
8 7 27 42 46 48 48 25 31 37 38 45 55 53 50 50 50 45 41 43 41 42 55 47 37 36 34 30 41 45 41 36 40 55 73 78 79 75 75 71 62 58 66 65 55 51 47 47 43
17 32 40 44 42 41 19 27 15 38 45 37 31 33 30 30 36 33 31 36 35 35 39 41 39 32 35 33 40 43 43 29 35 46 39 85 81 81 82 80 69 66 69 66 59 53 47 46 45
31 17 16 11 7 11 37 14 17 50 58 39 40 35 29 27 23 22 23 24 30 32 35 37 34 32 38 36 45 43 37 32 24 36 63 42 81 90 87 88 78 70 64 69 64 58 53 47 46
9 4 7 9 25 7 22 13 19 52 29 38 43 43 39 33 32 27 23 23 25 29 27 36 35 37 37 35 39 39 37 33 20 27 47 59 62 90 91 91 83 73 68 70 67 62 57 52 51
4 14 31 20 25 17 9 22 13 37 35 38 49 52 49 46 37 32 31 21 17 26 30 31 30 29 24 25 33 38 36 36 27 21 32 45 60 81 64 88 92 80 75 68 68 64 59 52 50
32 27 17 33 19 22 16 19 24 37 34 34 41 49 54 55 52 47 41 30 17 16 29 24 26 26 30 37 37 38 37 38 33 26 25 38 52 60 92 96 77 98 82 70 65 67 60 53 50
20 26 29 28 14 30 8 11 19 24 40 43 48 53 59 63 56 46 39 33 23 12 17 17 19 21 34 40 35 37 37 38 36 31 31 37 50 49 62 62 90 84 70 72 56 62 61 57 51
25 27 14 19 25 14 16 20 18 19 31 36 42 48 51 62 59 59 58 37 19 19 13 14 17 27 27 32 32 37 36 33 31 26 35 48 45 62 61 70 64 50 62 64 51 53 52 49 50
27 8 19 21 15 6 16 5 11 19 22 42 42 43 50 55 63 67 62 52 35 19 17 16 20 29 27 29 33 38 38 29 29 28 33 33 59 65 69 54 30 33 53 51 42 43 50 51 45
9 7 33 31 3 7 5 6 9 25 17 33 50 57 59 68 68 67 56 50 49 18 15 21 20 23 26 30 37 45 42 32 30 37 46 42 33 36 44 40 30 25 30 43 53 51 51 53 61
16 38 24 10 6 5 9 5 3 18 24 40 45 60 64 65 60 61 56 47 41 28 15 15 17 24 27 33 39 39 37 31 34 27 54 52 47 56 70 23 26 32 63 65 66 58 56 53 47
25 10 4 4 5 7 14 5 5 11 18 31 44 58 64 70 71 59 49 44 42 32 27 21 18 19 24 23 28 32 33 35 35 46 49 50 53 53 45 49 48 57 67 52 43 50 48 54 52
18 12 7 9 9 7 7 7 7 9 13 17 35 55 61 65 64 61 57 52 48 41 32 21 18 13 11 11 17 27 30 38 44 52 54 61 60 61 60 61 58 64 55 51 46 40 34 30 30
9 5 6 6 6 9 11 8 9 8 18 34 41 44 53 60 58 55 49 45 42 36 28 21 15 9 6 7 16 24 35 41 51 58 52 51 51 55 58 60 59 56 57 55 55 41 34 35 31
11 5 3 4 6 5 5 1 7 23 37 42 46 50 54 59 61 56 45 41 37 32 27 19 13 8 0 10 23 34 39 46 48 55 56 53 54 52 51 56 55 61 59 51 43 39 41 40 37
7 7 1 1 8 6 6 8 7 26 37 32 36 48 58 58 52 46 41 37 31 27 22 17 13 6 11 20 30 43 51 54 61 62 60 58 59 59 56 60 61 57 54 53 51 52 48 40 39
6 6 5 5 4 3 7 7 7 10 16 23 32 43 49 53 46 39 35 29 26 24 23 23 26 21 21 33 45 53 65 66 75 76 77 76 78 75 77 77 73 69 67 58 53 50 45 41 43
7 4 2 2 8 3 3 7 1 5 13 24 34 40 41 39 33 35 30 28 32 33 34 34 37 43 47 53 64 71 85 90 93 94 93 90 89 84 82 77 74 66 60 56 53 53 50 48 45
Wind_Direction_850mb
327 198 171 156 87 67 239 243 281 280 278 243 251 275 227 59 305 192 91 152 209 140 196 171 179 189 196 197 194 191 188 186 184 183 183 185 188 195 198 200 199 194 190 187 184 185 183 174 169
22 164 170 152 131 197 242 222 221 240 262 314 300 255 190 104 94 112 143 67 260 160 94 167 158 179 202 204 198 196 188 187 187 186 188 192 197 201 203 197 194 193 194 189 178 178 175 169 158
178 177 165 157 193 218 220 206 224 262 289 299 290 358 77 63 92 87 65 43 170 179 135 142 159 179 188 207 207 201 195 192 192 193 197 200 201 201 200 195 193 193 194 181 173 171 165 163 162
231 157 219 203 240 280 236 290 313 298 304 265 251 88 79 73 90 107 88 127 145 118 138 148 183 194 206 221 218 212 211 200 197 200 202 203 203 203 198 193 191 189 190 180 174 167 166 165 172
297 164 241 251 258 255 275 293 315 299 293 315 320 132 103 91 91 70 73 105 107 108 128 169 196 205 210 224 229 229 217 213 211 206 205 204 204 202 196 193 186 183 177 182 177 171 171 172 170
244 116 175 246 261 282 301 301 315 285 249 288 347 77 133 106 92 46 32 33 109 120 121 148 204 225 222 230 223 233 233 220 216 214 212 206 204 202 196 192 184 190 190 187 178 173 176 176 174
161 117 217 243 249 282 284 313 275 260 244 247 158 137 161 134 8 4 339 326 335 318 275 186 196 236 254 242 235 228 229 231 222 216 215 210 207 202 198 194 189 195 194 187 184 182 185 181 180
211 120 239 228 210 277 38 337 344 7 285 303 160 199 178 299 353 3 338 320 313 314 284 293 264 252 249 259 247 238 232 226 227 221 218 214 210 207 203 199 194 194 197 190 189 194 196 191 189
193 47 246 254 211 279 356 16 322 323 318 327 348 161 333 342 328 339 336 312 292 297 299 296 287 274 278 270 270 254 237 229 224 225 218 215 212 209 205 203 201 198 201 199 194 197 199 200 197
155 151 236 223 359 298 305 330 311 326 318 305 304 280 290 308 316 320 325 324 307 288 291 300 293 286 276 273 276 289 255 234 225 223 220 216 212 211 209 207 209 205 203 204 207 203 207 205 201
324 226 247 298 317 338 317 306 318 293 296 298 316 311 303 299 297 304 312 316 310 292 284 288 292 292 283 271 273 272 273 258 225 226 219 216 213 211 212 209 212 207 204 207 210 215 212 204 202
332 282 303 295 319 321 306 297 286 260 274 297 293 293 293 291 292 295 294 303 301 297 285 285 285 292 294 277 269 276 291 256 273 235 217 217 215 211 211 208 209 210 204 205 207 203 203 203 204
245 287 316 309 312 307 304 289 277 293 300 311 309 301 296 296 297 293 290 298 303 295 286 285 285 290 293 281 272 268 276 282 266 241 220 219 218 215 212 209 212 217 207 202 209 206 206 207 206
304 306 302 300 300 303 290 292 321 287 305 330 7 5 343 335 323 316 311 294 299 297 288 284 284 280 279 290 280 275 267 272 275 251 244 214 218 218 215 211 212 220 212 201 207 206 212 210 212
287 294 298 294 352 297 15 333 311 339 333 26 15 16 12 11 353 350 340 321 303 285 275 276 282 271 274 290 287 279 260 260 271 251 243 213 228 222 219 214 210 219 217 201 206 207 213 216 216
302 291 309 343 316 328 359 285 12 9 28 16 5 357 346 343 342 334 323 317 292 283 265 267 276 268 269 281 285 277 261 241 236 251 242 248 235 223 228 217 213 214 215 204 205 207 213 217 214
275 305 299 309 334 316 304 295 8 13 23 16 5 358 350 337 328 324 323 307 298 271 257 261 271 268 263 275 282 276 260 246 229 241 238 252 238 231 243 219 210 215 212 208 205 205 214 214 212
309 313 298 308 316 15 313 350 56 28 16 19 7 357 355 351 345 336 328 309 282 264 248 247 249 259 281 279 277 272 267 243 231 228 227 222 226 243 230 223 223 212 205 206 207 207 216 219 217
297 301 301 301 345 329 284 56 49 25 20 13 4 357 353 351 352 348 349 332 280 245 215 234 274 270 278 275 261 275 278 251 239 216 220 219 225 220 231 230 230 223 210 206 207 210 218 218 219
319 305 293 294 320 317 83 48 19 23 22 12 2 355 349 349 2 1 359 355 312 245 216 227 254 260 259 248 252 279 279 253 247 226 208 212 217 221 218 222 217 225 213 210 202 214 220 221 220
330 265 312 302 317 46 131 133 49 2 3 4 2 354 358 356 350 1 3 13 355 245 254 276 264 263 257 254 254 269 266 234 227 220 212 212 214 221 213 210 224 207 222 207 201 208 219 227 223
311 297 311 302 315 157 155 267 7 349 351 359 355 357 353 351 358 2 6 19 27 357 286 305 284 276 266 269 270 267 257 230 228 205 195 183 195 208 205 178 162 209 201 219 229 209 218 225 229
252 316 294 282 272 9 146 109 343 357 345 348 350 348 347 348 351 355 6 15 21 35 26 315 280 289 293 262 263 262 241 221 241 210 185 185 186 193 185 206 196 211 205 215 210 207 215 223 225
326 343 359 274 79 24 299 122 322 2 334 336 339 342 345 348 355 358 9 21 23 21 12 351 311 312 292 284 254 231 216 224 230 203 182 178 178 180 197 206 181 196 202 202 199 209 215 217 220
359 23 354 354 6 228 283 2 262 329 344 344 335 336 344 350 356 1 14 18 20 21 14 356 340 339 309 270 239 199 204 218 197 177 172 171 184 182 181 180 181 193 194 198 202 207 205 210 204
352 86 135 264 319 288 354 343 275 186 13 358 351 346 348 354 2 4 12 19 22 22 16 358 339 323 276 199 187 202 189 185 177 169 163 163 178 185 178 180 182 185 196 203 195 193 195 190 198
332 6 312 220 197 339 252 169 127 333 346 354 352 353 349 351 1 6 14 22 24 23 23 22 10 347 86 171 156 164 171 168 158 148 156 156 150 143 153 161 166 149 147 149 155 159 151 144 129
80 328 189 0 334 308 308 303 252 336 336 345 344 346 346 352 8 16 22 27 35 38 35 34 43 65 123 142 140 142 144 151 142 141 145 139 134 132 132 127 126 123 122 122 123 116 110 110 108
11 12 355 283 192 308 317 292 204 290 318 331 330 341 344 351 8 18 31 40 52 61 68 79 90 103 120 125 121 128 132 134 128 124 123 123 123 122 122 119 116 113 112 111 112 106 101 101 100
123 174 158 349 335 300 242 289 296 247 342 344 337 342 349 355 20 33 48 59 68 79 84 93 102 106 110 118 113 116 122 121 116 114 114 115 113 114 112 110 108 107 103 100 100 104 106 104 102